Location: Kaarina
(60.4167°N, 22.4167°E)
Time: 20:55:44
(UTC+03:00)

Resurs 01 Rocket - Pass Details

Date: 24 August 2019
Orbit: 635 x 644 km, 98.0° (Epoch: 15 September)

Event Time Altitude Azimuth Distance (km) Brightness Sun altitude
Rises 22:00:48 0° 179° (S) 2,928 4.6 -7.2°
Reaches altitude 10° 22:03:04 10° 185° (S) 2,023 3.9 -7.5°
Maximum altitude 22:07:19 47° 260° (W) 847 2.6 -7.9°
Drops below altitude 10° 22:11:37 10° 335° (NNW) 2,040 5.4 -8.3°
Sets 22:13:55 0° 341° (NNW) 2,954 6.2 -8.5°
